CAPE
1722 1471 1205 1030 1118 1365 1515 1549 1554 1525 1500 1403 1416 1321 1219 1211 1243 1436 1562 1587 1474 1126 714 566 500 451 431 449 449 529 658 785
2089 1734 1440 906 966 1117 1226 1248 1315 1413 1488 1462 1470 1388 1310 1262 1307 1455 1491 1399 1276 1030 689 538 464 397 406 396 349 378 446 763
2240 1971 1672 1015 865 865 1072 1208 1288 1435 1556 1577 1509 1453 1401 1329 1302 1356 1430 1316 1198 1003 647 495 393 408 366 311 244 171 483 640
2480 2231 1925 1492 1011 1011 764 1002 1247 1434 1554 1530 1502 1465 1377 1320 1262 1231 1321 1327 1219 880 478 429 358 341 253 216 81 131 481 383
0 1789 2280 1952 1631 1272 1095 743 895 1269 1460 1451 1487 1503 1467 1347 1209 1235 1332 1312 1140 736 406 365 340 357 178 66 32 191 349 354
0 0 328 1760 1637 1715 1461 1200 645 821 1383 1520 1430 1293 1419 1249 1232 1163 1362 1345 1114 750 397 299 298 572 708 412 232 455 478 405
0 0 0 0 709 1224 1688 1472 1220 833 835 1392 1435 1281 1296 1514 1424 1384 1365 1396 1266 822 547 261 242 515 733 717 525 437 466 237
0 0 0 0 0 917 1518 1574 1515 1273 1147 1234 1655 1347 1388 1720 1520 1613 1561 1508 1296 1073 897 621 410 645 799 749 726 573 549 351
0 0 0 0 0 0 23 1559 1555 1577 1586 1553 1723 1710 1423 1835 1638 1675 1622 1573 1300 1140 1041 924 797 697 868 700 451 755 538 528
0 0 0 0 0 0 0 0 1029 1286 1639 1796 1695 1823 1543 1708 1727 1663 1697 1589 1464 1297 1182 1066 954 939 746 630 567 580 357 635
0 0 0 0 0 0 0 0 0 1201 1233 1733 1909 1846 1790 1536 1847 1727 1786 1742 1582 1392 1217 1114 828 866 863 849 541 174 337 537
0 0 0 0 0 0 0 0 0 98 1088 1312 1518 2076 1906 1712 1812 1864 1794 1776 1617 1543 1415 1204 930 777 864 797 622 398 338 442
0 0 0 0 0 0 0 0 0 0 11 890 1117 1416 1978 1856 1824 1785 1790 1556 1607 1713 1464 1318 1180 1077 986 791 721 569 405 333
0 0 0 0 0 0 0 0 0 0 0 0 918 1312 1587 1742 1658 1807 1828 1738 1485 1667 1696 1488 1425 1138 955 757 751 769 674 575
0 0 1 0 0 2 1 2 0 0 0 0 767 1069 1373 1178 1211 1686 1597 1621 1551 1574 1532 1455 1310 1139 878 593 354 209 364 539
1 0 1 0 0 0 2 2 3 0 0 0 1 818 1217 1362 1153 1408 1687 1300 1296 1401 1304 1035 774 829 759 612 255 298 12 48
0 0 1 0 1 1 2 2 7 0 0 0 0 98 1097 1197 1130 1171 1336 1151 951 852 948 856 669 617 505 466 767 545 564 630
0 1 2 2 1 2 1 2 1 2 0 3 2 252 741 976 1072 1087 1135 1033 844 751 732 686 617 530 517 349 431 609 413 381
0 2 3 3 1 1 1 2 2 8 11 37 16 1 0 0 38 258 417 982 852 824 734 957 794 704 582 411 382 352 240 253
1 2 2 3 1 1 2 1 3 1 4 1 2 3 0 0 0 0 0 1 827 936 773 1139 1063 876 724 518 469 380 310 313
CIN
-107 -164 -228 -292 -265 -221 -197 -186 -162 -150 -130 -123 -114 -102 -93 -77 -64 -37 -20 -12 -15 -40 -84 -120 -132 -133 -123 -111 -99 -58 -27 -28
-67 -107 -171 -296 -286 -247 -216 -204 -188 -155 -132 -120 -100 -89 -80 -73 -58 -34 -24 -29 -34 -54 -88 -125 -141 -154 -143 -120 -117 -75 -48 -38
-73 -90 -128 -247 -285 -266 -217 -196 -180 -139 -108 -98 -98 -84 -70 -66 -62 -43 -22 -34 -45 -51 -93 -141 -174 -166 -160 -167 -140 -123 -41 -35
-42 -60 -80 -125 -186 -199 -249 -207 -159 -116 -93 -96 -78 -72 -75 -77 -69 -52 -32 -26 -39 -74 -127 -153 -199 -193 -199 -187 -200 -140 -50 -42
-0 -23 -50 -48 -85 -133 -154 -218 -197 -130 -88 -100 -89 -68 -56 -62 -72 -55 -33 -23 -42 -87 -169 -178 -189 -153 -205 -253 -228 -117 -61 -61
-0 -0 -31 -13 -18 -72 -86 -120 -226 -195 -92 -71 -80 -97 -74 -87 -83 -88 -43 -39 -51 -88 -176 -195 -175 -76 -68 -69 -98 -48 -50 -51
-0 -0 -0 -0 -38 -12 -50 -85 -133 -201 -191 -95 -75 -83 -82 -46 -50 -48 -51 -43 -31 -78 -114 -197 -194 -84 -52 -38 -30 -39 -37 -55
-0 -0 -0 -0 -0 -41 -14 -44 -67 -103 -127 -117 -50 -71 -55 -18 -37 -28 -31 -36 -34 -45 -56 -80 -107 -57 -19 -21 -15 -19 -32 -71
-0 -0 -0 -0 -0 -0 -4 -13 -45 -36 -70 -89 -56 -39 -55 -15 -30 -36 -36 -47 -45 -26 -25 -34 -29 -38 -16 -7 -10 -12 -38 -51
-0 -0 -0 -0 -0 -0 -0 -0 -49 -32 -36 -50 -58 -49 -41 -16 -18 -36 -38 -35 -36 -20 -18 -25 -33 -34 -30 -26 -13 -15 -12 -31
-0 -0 -0 -0 -0 -0 -0 -0 -0 -17 -31 -31 -38 -34 -31 -30 -22 -40 -30 -23 -40 -30 -36 -26 -31 -27 -29 -23 -24 -42 -17 -16
-0 -0 -0 -0 -0 -0 -0 -0 -0 -167 -13 -22 -25 -33 -31 -23 -20 -21 -24 -25 -41 -34 -17 -27 -38 -26 -19 -24 -34 -41 -29 -23
-0 -0 -0 -0 -0 -0 -0 -0 -0 -0 -245 -5 -11 -11 -31 -21 -23 -18 -21 -42 -48 -33 -28 -20 -24 -18 -10 -18 -34 -52 -59 -44
-0 -0 -0 -0 -0 -0 -0 -0 -0 -0 -0 -0 -15 -8 -39 -30 -28 -23 -27 -41 -37 -18 -19 -25 -9 -13 -5 -19 -17 -12 -56 -58
-0 -0 -0 -0 -0 -0 -0 -0 -0 -0 -0 -0 -3 -4 -23 -46 -42 -25 -29 -31 -35 -33 -28 -35 -26 -25 -31 -40 -56 -131 -111 -100
-0 -0 -0 -0 -0 -0 -0 -0 -0 -0 -0 -0 -9 -1 -7 -37 -69 -37 -37 -53 -51 -60 -56 -65 -78 -56 -48 -75 -122 -133 -179 -135
-0 -0 -0 -0 -0 -0 -0 -0 -2 -2 -0 -0 -0 -37 -6 -25 -46 -56 -55 -60 -103 -119 -92 -82 -110 -108 -105 -118 -56 -61 -63 -29
-0 -0 -0 -0 -0 -0 -0 -0 -2 -3 -0 -33 -20 -39 -5 -2 -38 -24 -21 -57 -115 -150 -131 -116 -122 -124 -108 -134 -130 -65 -119 -65
-0 -0 -0 -0 -0 -0 -0 -0 -0 -4 -6 -59 -117 -0 -0 -0 -9 -126 -52 -22 -47 -95 -89 -62 -93 -84 -109 -151 -137 -143 -168 -123
-0 -0 -0 -0 -0 -0 -0 -0 -0 -0 -0 -0 -0 -0 -0 -0 -0 -0 -0 -0 -7 -18 -33 -21 -24 -41 -59 -76 -90 -127 -126 -135
Wind_Speed
14 13 9 7 5 5 4 3 2 1 2 3 5 6 6 7 7 7 7 7 7 7 8 8 9 10 11 12 13 13 15 14
15 13 11 10 9 8 7 6 6 4 2 2 2 2 4 5 6 8 8 7 6 6 6 7 8 8 10 11 12 11 13 13
16 15 12 9 12 12 11 10 9 7 5 3 2 1 2 2 4 6 6 7 6 5 6 6 7 7 8 9 10 11 12 13
21 17 14 11 13 16 15 14 13 12 9 6 4 3 2 2 3 5 5 6 6 6 5 5 6 6 7 8 8 9 11 10
28 27 17 16 13 15 17 17 16 14 12 10 7 6 5 3 2 3 3 3 3 4 6 6 6 5 6 7 7 9 10 8
32 31 30 24 25 19 17 18 18 17 16 13 12 10 9 6 5 4 4 2 2 3 5 5 4 4 5 6 6 9 8 7
35 35 33 34 35 31 21 21 19 18 17 16 15 15 12 10 7 6 4 3 3 3 5 4 6 7 3 5 5 7 7 7
38 36 36 34 34 37 32 25 25 22 20 19 18 17 16 13 9 7 6 5 5 4 4 5 4 7 7 5 4 5 5 5
40 41 40 40 38 37 38 33 29 27 24 19 19 19 18 15 13 10 8 7 6 6 4 5 3 2 3 2 3 5 5 4
45 43 43 42 42 40 37 39 39 32 29 25 21 21 20 19 16 14 11 9 8 8 6 5 6 2 1 2 1 4 5 5
50 48 46 46 45 44 42 40 42 37 33 30 27 24 22 21 19 15 13 12 10 9 8 7 5 4 3 3 2 3 4 6
50 50 49 47 46 45 45 43 41 41 43 33 32 27 25 24 22 18 16 15 13 11 10 10 8 5 5 5 5 4 4 5
50 51 50 50 49 49 49 50 47 45 42 44 43 37 29 27 25 20 18 18 16 13 11 10 10 9 5 6 10 8 5 4
51 52 50 50 48 49 49 50 51 49 46 46 35 52 34 30 28 27 21 20 18 16 14 15 14 10 9 10 10 12 10 7
50 48 47 47 48 48 49 50 52 53 49 45 45 42 35 32 32 32 27 24 21 19 18 16 16 14 12 15 14 10 11 9
44 43 43 43 43 44 48 53 58 55 54 50 50 51 38 36 33 33 31 29 26 22 20 19 18 18 18 13 14 15 11 15
43 43 44 44 43 42 44 50 53 55 54 54 51 51 48 40 36 34 33 30 28 26 24 23 21 21 18 18 15 15 13 14
43 43 44 42 42 39 40 44 50 54 55 53 46 45 50 46 42 37 33 31 29 26 24 24 23 22 19 18 17 15 15 15
41 44 43 42 40 38 38 40 43 45 45 40 34 32 34 39 29 33 33 33 32 29 27 25 24 22 21 20 17 16 17 15
43 43 42 39 35 35 33 33 33 36 33 32 30 29 28 27 30 15 20 24 29 32 29 27 24 22 22 21 23 20 20 18
Wind_Direction
341 336 319 281 266 276 283 285 281 167 132 122 119 114 107 104 96 88 72 58 41 21 18 28 38 49 58 64 64 67 44 54
341 338 322 283 271 270 277 281 282 272 207 160 149 128 117 112 109 108 101 82 55 37 27 24 34 44 48 59 61 61 49 73
329 326 323 302 273 273 275 277 278 276 267 224 180 214 152 126 122 119 111 99 73 47 51 49 49 39 37 43 41 49 36 70
317 316 309 306 280 274 272 276 277 276 273 266 260 253 212 178 150 140 128 117 107 87 66 61 49 42 29 44 33 36 25 70
323 311 305 293 293 273 271 270 270 270 267 261 256 251 255 252 201 174 144 130 100 92 91 97 83 56 47 35 35 8 11 72
312 313 304 294 287 277 270 264 262 264 263 258 257 256 251 249 239 214 188 190 152 124 114 111 90 90 75 50 25 6 29 61
311 312 306 297 287 282 269 263 258 256 253 253 256 259 253 250 246 230 234 229 207 166 142 136 137 136 97 99 30 16 34 18
308 307 310 309 301 284 276 266 262 258 256 254 249 255 257 250 242 237 236 237 239 213 175 144 141 141 140 120 66 30 41 45
308 302 303 304 299 295 287 271 265 259 256 249 243 245 247 246 239 237 235 225 208 209 198 171 164 152 144 24 16 8 14 24
305 302 298 298 297 295 292 281 274 264 259 254 242 243 242 246 242 240 233 229 218 203 212 197 176 195 193 332 22 352 351 4
304 300 298 294 292 290 288 287 279 268 258 250 246 242 243 243 241 241 234 239 233 224 235 228 211 238 279 306 315 326 330 336
306 300 295 293 290 288 285 283 282 275 266 259 252 245 241 245 248 244 237 244 240 235 241 254 252 232 279 286 295 293 292 306
308 304 297 292 286 283 280 276 276 274 273 263 257 253 243 241 244 242 235 239 240 231 244 240 260 261 275 296 299 299 291 284
312 304 300 294 286 281 277 275 272 271 271 271 256 248 243 237 240 244 236 237 239 238 238 262 266 260 271 302 309 310 294 267
315 309 304 299 291 283 276 273 270 267 267 267 261 253 240 238 243 243 242 241 238 241 242 246 251 254 261 288 305 301 312 290
323 316 313 305 298 289 278 270 264 264 263 265 261 258 248 238 238 240 237 240 241 243 246 248 258 254 265 251 287 316 314 320
325 323 319 310 302 295 285 273 264 262 261 261 262 261 252 244 235 236 238 238 240 242 248 251 252 261 258 270 257 279 298 310
329 330 321 317 305 302 289 279 266 260 256 256 260 262 254 252 236 232 238 238 240 239 244 249 251 255 259 263 269 262 259 278
347 332 333 323 310 302 290 283 272 259 253 249 254 263 258 266 249 225 238 241 245 245 247 248 247 250 257 265 268 267 279 278
348 340 331 318 301 301 295 287 279 260 250 242 253 259 262 284 308 238 247 258 252 250 247 247 248 252 262 268 277 278 279 277